Location: Newark
(48.1500°N, 2.9667°W)
Time: 13:44:46
(UTC+00:00)

Transit 2A - Pass Details

Date: 26 January 2020
Orbit: 600 x 959 km, 66.7° (Epoch: 23 February)

Event Time Altitude Azimuth Distance (km) Brightness Sun altitude
Rises 18:58:19 0° 179° (S) 2,896 9.1 -19.4°
Reaches altitude 10° 19:00:56 10° 165° (SSE) 1,964 8.0 -19.8°
Enters shadow 19:02:07 16° 153° (SSE) 1,618 7.5 -20.0°
Maximum altitude 19:04:25 23° 112° (ESE) 1,277 - -20.4°
Drops below altitude 10° 19:07:52 10° 59° (ENE) 1,948 - -21.0°
Sets 19:10:27 0° 45° (NE) 2,867 - -21.4°
